QPF
0.01 0.01 0.02 0.02 0.02 0.03 0.04 0.05 0.05 0.05 0.05 0.04 0.04 0.04 0.04 0.04 0.04 0.06 0.06 0.07 0.06 0.06 0.06 0.07 0.06 0.06 0.06 0.05 0.06 0.07 0.07 0.07 0.06 0.05 0.05 0.06 0.05 0.04 0.04 0.04 0.02 0.02 0.02
0.01 0.02 0.03 0.04 0.04 0.03 0.03 0.04 0.05 0.04 0.04 0.03 0.04 0.04 0.04 0.05 0.05 0.05 0.04 0.06 0.05 0.05 0.05 0.06 0.06 0.07 0.06 0.05 0.07 0.08 0.08 0.09 0.08 0.07 0.08 0.08 0.09 0.06 0.05 0.04 0.03 0.02 0.02
0.01 0.02 0.04 0.05 0.05 0.05 0.05 0.05 0.04 0.04 0.04 0.04 0.04 0.04 0.04 0.05 0.05 0.04 0.04 0.05 0.05 0.06 0.05 0.05 0.06 0.08 0.06 0.05 0.05 0.06 0.07 0.07 0.09 0.07 0.05 0.08 0.09 0.07 0.07 0.05 0.04 0.03 0.02
0.02 0.04 0.06 0.07 0.07 0.07 0.07 0.05 0.05 0.06 0.06 0.06 0.05 0.05 0.05 0.04 0.04 0.04 0.04 0.04 0.06 0.06 0.04 0.05 0.06 0.06 0.07 0.07 0.06 0.07 0.08 0.08 0.09 0.07 0.05 0.06 0.08 0.07 0.07 0.05 0.05 0.05 0.03
0.02 0.04 0.05 0.05 0.05 0.05 0.04 0.04 0.03 0.03 0.03 0.03 0.04 0.05 0.04 0.04 0.03 0.04 0.05 0.05 0.06 0.06 0.06 0.07 0.07 0.08 0.09 0.07 0.06 0.07 0.07 0.07 0.06 0.06 0.06 0.07 0.06 0.06 0.06 0.05 0.05 0.06 0.06
0.02 0.02 0.03 0.03 0.03 0.03 0.03 0.02 0.03 0.03 0.03 0.04 0.03 0.03 0.03 0.02 0.02 0.03 0.04 0.06 0.06 0.06 0.07 0.08 0.07 0.07 0.07 0.07 0.06 0.06 0.07 0.06 0.06 0.06 0.06 0.06 0.06 0.07 0.07 0.07 0.07 0.08 0.08
0.03 0.03 0.03 0.04 0.04 0.04 0.03 0.02 0.02 0.03 0.03 0.04 0.04 0.03 0.03 0.03 0.04 0.02 0.02 0.04 0.05 0.06 0.07 0.07 0.05 0.06 0.08 0.07 0.06 0.05 0.03 0.03 0.04 0.05 0.06 0.06 0.07 0.08 0.08 0.07 0.08 0.08 0.08
0.06 0.06 0.06 0.06 0.06 0.06 0.06 0.05 0.04 0.04 0.04 0.03 0.03 0.03 0.03 0.04 0.04 0.02 0.02 0.02 0.03 0.04 0.05 0.06 0.06 0.08 0.07 0.06 0.07 0.05 0.04 0.03 0.03 0.03 0.03 0.04 0.05 0.06 0.06 0.06 0.08 0.08 0.08
0.04 0.05 0.06 0.06 0.07 0.08 0.08 0.07 0.06 0.05 0.05 0.04 0.04 0.04 0.04 0.04 0.04 0.03 0.03 0.03 0.03 0.03 0.03 0.04 0.04 0.05 0.07 0.07 0.08 0.07 0.05 0.04 0.04 0.04 0.03 0.03 0.03 0.03 0.04 0.06 0.06 0.06 0.04
0.06 0.06 0.06 0.07 0.08 0.11 0.12 0.13 0.12 0.10 0.08 0.07 0.06 0.05 0.04 0.03 0.04 0.04 0.04 0.03 0.03 0.03 0.05 0.04 0.04 0.05 0.06 0.06 0.07 0.07 0.05 0.05 0.07 0.05 0.03 0.03 0.02 0.02 0.03 0.04 0.06 0.06 0.05
0.08 0.07 0.07 0.07 0.08 0.10 0.13 0.15 0.18 0.16 0.13 0.11 0.08 0.05 0.05 0.04 0.04 0.04 0.03 0.03 0.03 0.04 0.04 0.05 0.05 0.05 0.04 0.04 0.04 0.04 0.04 0.07 0.10 0.08 0.05 0.04 0.03 0.03 0.02 0.03 0.04 0.06 0.06
0.12 0.09 0.06 0.06 0.08 0.08 0.08 0.10 0.10 0.10 0.10 0.10 0.09 0.07 0.06 0.04 0.04 0.03 0.02 0.02 0.02 0.03 0.04 0.05 0.06 0.07 0.06 0.05 0.04 0.04 0.05 0.06 0.07 0.07 0.06 0.05 0.05 0.04 0.05 0.04 0.03 0.04 0.04
0.09 0.09 0.09 0.09 0.07 0.08 0.07 0.06 0.05 0.04 0.04 0.04 0.04 0.03 0.03 0.02 0.02 0.01 0.01 0.01 0.02 0.02 0.03 0.04 0.05 0.06 0.07 0.05 0.04 0.05 0.06 0.06 0.06 0.05 0.04 0.04 0.04 0.04 0.06 0.07 0.06 0.05 0.05
0.08 0.06 0.07 0.08 0.10 0.10 0.08 0.05 0.04 0.03 0.02 0.02 0.02 0.03 0.02 0.02 0.02 0.01 0.01 0.01 0.01 0.01 0.01 0.02 0.03 0.04 0.04 0.04 0.04 0.04 0.04 0.04 0.05 0.04 0.04 0.05 0.07 0.07 0.07 0.07 0.08 0.07 0.06
0.08 0.06 0.05 0.05 0.05 0.06 0.07 0.07 0.05 0.04 0.04 0.04 0.03 0.03 0.03 0.02 0.02 0.01 0.01 0.01 0.02 0.02 0.02 0.02 0.03 0.03 0.03 0.04 0.04 0.04 0.03 0.03 0.04 0.04 0.04 0.04 0.06 0.07 0.08 0.07 0.07 0.08 0.07
0.08 0.08 0.06 0.04 0.04 0.04 0.04 0.03 0.03 0.03 0.03 0.03 0.02 0.02 0.02 0.01 0.01 0.02 0.02 0.01 0.02 0.03 0.02 0.02 0.03 0.05 0.05 0.04 0.04 0.03 0.03 0.03 0.03 0.03 0.04 0.04 0.05 0.07 0.08 0.09 0.11 0.11 0.09
0.07 0.07 0.05 0.04 0.03 0.02 0.02 0.02 0.02 0.01 0.01 0.01 0.01 0.01 0.01 0.01 0.01 0.01 0.01 0.02 0.02 0.02 0.02 0.02 0.03 0.04 0.05 0.04 0.04 0.03 0.03 0.03 0.03 0.04 0.05 0.06 0.07 0.09 0.11 0.12 0.13 0.14 0.15
0.07 0.08 0.06 0.05 0.04 0.03 0.03 0.02 0.02 0.02 0.02 0.02 0.02 0.02 0.01 0.01 0.01 0.01 0.01 0.02 0.02 0.02 0.02 0.02 0.03 0.04 0.04 0.04 0.04 0.03 0.04 0.04 0.04 0.04 0.04 0.06 0.08 0.10 0.12 0.14 0.16 0.16 0.15
0.06 0.07 0.07 0.06 0.05 0.05 0.04 0.04 0.03 0.03 0.03 0.02 0.02 0.01 0.01 0.02 0.01 0.02 0.01 0.01 0.01 0.01 0.01 0.02 0.02 0.03 0.02 0.03 0.03 0.03 0.03 0.04 0.04 0.04 0.04 0.05 0.07 0.08 0.09 0.10 0.12 0.13 0.13
0.07 0.07 0.08 0.08 0.07 0.06 0.05 0.05 0.04 0.04 0.04 0.03 0.02 0.01 0.01 0.02 0.02 0.03 0.02 0.02 0.02 0.02 0.02 0.03 0.04 0.04 0.03 0.03 0.03 0.02 0.02 0.03 0.03 0.04 0.04 0.04 0.05 0.05 0.05 0.06 0.07 0.07 0.08
0.07 0.08 0.07 0.09 0.09 0.08 0.06 0.04 0.04 0.04 0.03 0.03 0.02 0.02 0.02 0.02 0.03 0.04 0.04 0.04 0.03 0.03 0.03 0.03 0.03 0.03 0.03 0.02 0.02 0.03 0.03 0.03 0.03 0.03 0.03 0.03 0.04 0.05 0.05 0.05 0.05 0.06 0.07
0.08 0.06 0.07 0.08 0.11 0.11 0.11 0.08 0.06 0.04 0.03 0.03 0.03 0.02 0.02 0.02 0.02 0.03 0.04 0.04 0.04 0.03 0.03 0.04 0.04 0.04 0.03 0.02 0.02 0.03 0.03 0.02 0.02 0.02 0.02 0.02 0.03 0.04 0.05 0.06 0.06 0.06 0.06
0.08 0.07 0.06 0.06 0.08 0.11 0.11 0.09 0.08 0.06 0.06 0.05 0.04 0.03 0.02 0.02 0.02 0.02 0.03 0.04 0.04 0.04 0.04 0.05 0.05 0.05 0.04 0.04 0.04 0.04 0.04 0.02 0.02 0.02 0.02 0.02 0.03 0.04 0.05 0.06 0.06 0.07 0.07
0.07 0.08 0.08 0.07 0.06 0.07 0.09 0.09 0.08 0.08 0.07 0.07 0.06 0.04 0.03 0.03 0.03 0.05 0.05 0.05 0.04 0.04 0.03 0.03 0.03 0.02 0.03 0.03 0.03 0.04 0.03 0.03 0.02 0.02 0.02 0.02 0.03 0.03 0.04 0.05 0.05 0.06 0.06
0.07 0.09 0.10 0.08 0.07 0.06 0.06 0.06 0.08 0.09 0.07 0.07 0.06 0.04 0.04 0.04 0.05 0.04 0.04 0.04 0.04 0.03 0.03 0.03 0.03 0.03 0.02 0.03 0.03 0.03 0.03 0.02 0.02 0.02 0.02 0.03 0.03 0.03 0.04 0.04 0.05 0.05 0.05
0.04 0.04 0.06 0.07 0.08 0.08 0.07 0.07 0.07 0.07 0.08 0.07 0.07 0.06 0.07 0.07 0.05 0.04 0.03 0.03 0.03 0.03 0.03 0.02 0.02 0.02 0.02 0.02 0.03 0.03 0.03 0.03 0.03 0.03 0.03 0.04 0.04 0.04 0.04 0.05 0.05 0.05 0.05
MSLP
1001.71 1002.77 1003.72 1004.51 1005.09 1005.48 1005.71 1005.86 1005.98 1006.13 1006.37 1006.71 1007.14 1007.63 1008.14 1008.62 1009.03 1009.36 1009.61 1009.78 1009.91 1010.04 1010.20 1010.40 1010.65 1010.94 1011.25 1011.54 1011.78 1011.94 1012.00 1011.96 1011.82 1011.60 1011.32 1011.01 1010.72 1010.46 1010.25 1010.12 1010.07 1010.09 1010.18
1000.92 1001.92 1002.85 1003.65 1004.28 1004.72 1005.01 1005.21 1005.37 1005.55 1005.80 1006.14 1006.57 1007.05 1007.55 1008.03 1008.45 1008.78 1009.03 1009.21 1009.34 1009.46 1009.60 1009.78 1010.02 1010.32 1010.64 1010.97 1011.26 1011.50 1011.65 1011.70 1011.64 1011.49 1011.26 1010.97 1010.66 1010.36 1010.08 1009.85 1009.69 1009.60 1009.58
1000.24 1001.13 1001.99 1002.75 1003.38 1003.85 1004.20 1004.46 1004.68 1004.92 1005.20 1005.57 1006.00 1006.49 1006.99 1007.47 1007.89 1008.23 1008.49 1008.68 1008.81 1008.93 1009.07 1009.25 1009.49 1009.78 1010.11 1010.47 1010.80 1011.10 1011.32 1011.46 1011.48 1011.41 1011.23 1010.99 1010.69 1010.37 1010.05 1009.76 1009.52 1009.33 1009.22
999.73 1000.45 1001.18 1001.86 1002.45 1002.94 1003.32 1003.64 1003.94 1004.24 1004.59 1004.99 1005.45 1005.95 1006.46 1006.94 1007.36 1007.71 1007.98 1008.18 1008.32 1008.46 1008.60 1008.78 1009.02 1009.31 1009.64 1010.01 1010.38 1010.71 1010.99 1011.18 1011.28 1011.28 1011.18 1010.99 1010.74 1010.44 1010.12 1009.82 1009.53 1009.29 1009.11
999.43 999.95 1000.52 1001.08 1001.61 1002.07 1002.47 1002.84 1003.20 1003.57 1003.98 1004.43 1004.92 1005.43 1005.94 1006.42 1006.84 1007.19 1007.47 1007.68 1007.85 1008.00 1008.16 1008.34 1008.58 1008.87 1009.20 1009.57 1009.94 1010.28 1010.59 1010.83 1010.98 1011.05 1011.02 1010.91 1010.73 1010.49 1010.22 1009.94 1009.67 1009.42 1009.21
999.39 999.71 1000.09 1000.51 1000.94 1001.35 1001.75 1002.15 1002.55 1002.98 1003.44 1003.92 1004.44 1004.95 1005.46 1005.92 1006.33 1006.67 1006.95 1007.18 1007.36 1007.53 1007.71 1007.91 1008.16 1008.44 1008.76 1009.11 1009.46 1009.80 1010.10 1010.36 1010.55 1010.67 1010.71 1010.68 1010.59 1010.44 1010.26 1010.05 1009.83 1009.62 1009.42
999.65 999.77 999.97 1000.24 1000.56 1000.91 1001.28 1001.68 1002.10 1002.56 1003.04 1003.54 1004.05 1004.55 1005.03 1005.46 1005.84 1006.17 1006.44 1006.67 1006.87 1007.07 1007.27 1007.49 1007.74 1008.02 1008.32 1008.64 1008.96 1009.26 1009.55 1009.79 1010.00 1010.15 1010.25 1010.30 1010.29 1010.25 1010.17 1010.06 1009.92 1009.78 1009.63
1000.20 1000.15 1000.20 1000.34 1000.55 1000.82 1001.16 1001.53 1001.96 1002.41 1002.88 1003.36 1003.84 1004.29 1004.71 1005.09 1005.43 1005.72 1005.97 1006.20 1006.42 1006.64 1006.86 1007.11 1007.37 1007.64 1007.92 1008.20 1008.48 1008.73 1008.97 1009.19 1009.38 1009.54 1009.67 1009.78 1009.86 1009.91 1009.93 1009.92 1009.88 1009.82 1009.73
1000.98 1000.82 1000.76 1000.80 1000.93 1001.14 1001.43 1001.77 1002.16 1002.58 1003.02 1003.44 1003.85 1004.23 1004.57 1004.87 1005.14 1005.38 1005.60 1005.82 1006.05 1006.29 1006.54 1006.81 1007.08 1007.36 1007.62 1007.86 1008.09 1008.29 1008.47 1008.64 1008.79 1008.94 1009.08 1009.22 1009.35 1009.47 1009.57 1009.64 1009.69 1009.71 1009.68
1001.91 1001.70 1001.58 1001.56 1001.64 1001.81 1002.06 1002.37 1002.72 1003.08 1003.45 1003.80 1004.12 1004.39 1004.63 1004.83 1005.02 1005.19 1005.38 1005.58 1005.81 1006.07 1006.35 1006.64 1006.93 1007.20 1007.45 1007.67 1007.85 1008.00 1008.12 1008.23 1008.34 1008.45 1008.58 1008.72 1008.87 1009.02 1009.17 1009.30 1009.40 1009.47 1009.49
1002.88 1002.67 1002.55 1002.52 1002.59 1002.74 1002.97 1003.24 1003.55 1003.85 1004.14 1004.40 1004.60 1004.77 1004.89 1004.99 1005.09 1005.19 1005.33 1005.50 1005.73 1005.99 1006.29 1006.60 1006.91 1007.19 1007.44 1007.64 1007.78 1007.89 1007.96 1008.02 1008.08 1008.15 1008.24 1008.36 1008.50 1008.66 1008.81 1008.96 1009.08 1009.17 1009.22
1003.78 1003.61 1003.52 1003.53 1003.62 1003.78 1004.00 1004.26 1004.52 1004.77 1004.99 1005.15 1005.25 1005.31 1005.32 1005.32 1005.32 1005.36 1005.44 1005.58 1005.78 1006.05 1006.35 1006.68 1007.00 1007.29 1007.54 1007.73 1007.87 1007.95 1007.99 1008.02 1008.04 1008.07 1008.12 1008.21 1008.32 1008.44 1008.58 1008.71 1008.82 1008.90 1008.94
1004.54 1004.43 1004.40 1004.46 1004.59 1004.79 1005.02 1005.27 1005.50 1005.70 1005.85 1005.94 1005.95 1005.91 1005.84 1005.74 1005.67 1005.63 1005.65 1005.76 1005.93 1006.18 1006.48 1006.81 1007.14 1007.44 1007.70 1007.90 1008.04 1008.12 1008.15 1008.16 1008.16 1008.17 1008.20 1008.25 1008.32 1008.41 1008.51 1008.60 1008.67 1008.72 1008.74
1005.12 1005.08 1005.11 1005.22 1005.40 1005.63 1005.87 1006.12 1006.34 1006.51 1006.61 1006.64 1006.59 1006.49 1006.34 1006.19 1006.04 1005.95 1005.92 1005.98 1006.12 1006.34 1006.62 1006.93 1007.26 1007.57 1007.84 1008.05 1008.21 1008.31 1008.36 1008.39 1008.39 1008.40 1008.41 1008.44 1008.48 1008.53 1008.59 1008.63 1008.67 1008.68 1008.66
1005.56 1005.56 1005.64 1005.78 1005.99 1006.23 1006.48 1006.73 1006.93 1007.08 1007.16 1007.16 1007.08 1006.94 1006.76 1006.57 1006.39 1006.25 1006.18 1006.19 1006.29 1006.46 1006.71 1007.00 1007.31 1007.61 1007.89 1008.13 1008.32 1008.45 1008.54 1008.60 1008.64 1008.66 1008.68 1008.70 1008.73 1008.76 1008.78 1008.79 1008.78 1008.75 1008.71
1005.92 1005.92 1006.00 1006.15 1006.35 1006.58 1006.83 1007.05 1007.25 1007.39 1007.46 1007.45 1007.38 1007.24 1007.05 1006.85 1006.65 1006.49 1006.39 1006.36 1006.41 1006.54 1006.74 1006.99 1007.28 1007.57 1007.86 1008.12 1008.34 1008.52 1008.66 1008.76 1008.84 1008.89 1008.94 1008.97 1009.00 1009.01 1009.01 1009.00 1008.96 1008.92 1008.85
1006.26 1006.24 1006.28 1006.39 1006.55 1006.74 1006.95 1007.15 1007.32 1007.45 1007.53 1007.54 1007.48 1007.37 1007.21 1007.03 1006.84 1006.68 1006.56 1006.50 1006.51 1006.60 1006.75 1006.96 1007.21 1007.49 1007.77 1008.05 1008.30 1008.52 1008.71 1008.86 1008.98 1009.08 1009.15 1009.19 1009.22 1009.24 1009.23 1009.20 1009.16 1009.10 1009.03
1006.65 1006.56 1006.54 1006.58 1006.66 1006.79 1006.93 1007.09 1007.24 1007.36 1007.44 1007.48 1007.46 1007.39 1007.28 1007.14 1006.98 1006.84 1006.72 1006.64 1006.62 1006.67 1006.78 1006.96 1007.18 1007.44 1007.72 1008.00 1008.28 1008.53 1008.75 1008.94 1009.10 1009.22 1009.30 1009.36 1009.40 1009.40 1009.40 1009.37 1009.32 1009.26 1009.19
1007.10 1006.94 1006.82 1006.76 1006.76 1006.79 1006.87 1006.96 1007.08 1007.19 1007.28 1007.35 1007.37 1007.36 1007.31 1007.22 1007.11 1006.99 1006.89 1006.81 1006.78 1006.81 1006.90 1007.04 1007.24 1007.49 1007.76 1008.05 1008.33 1008.60 1008.85 1009.05 1009.22 1009.35 1009.44 1009.50 1009.52 1009.52 1009.50 1009.47 1009.42 1009.36 1009.29
1007.59 1007.34 1007.14 1006.98 1006.88 1006.82 1006.82 1006.85 1006.92 1007.01 1007.11 1007.21 1007.28 1007.32 1007.32 1007.29 1007.24 1007.16 1007.09 1007.03 1007.01 1007.03 1007.10 1007.24 1007.43 1007.67 1007.94 1008.23 1008.52 1008.80 1009.04 1009.25 1009.41 1009.52 1009.59 1009.62 1009.62 1009.60 1009.56 1009.51 1009.46 1009.40 1009.34
1008.04 1007.73 1007.45 1007.21 1007.02 1006.88 1006.81 1006.78 1006.82 1006.89 1006.98 1007.09 1007.20 1007.28 1007.34 1007.36 1007.35 1007.32 1007.29 1007.26 1007.25 1007.29 1007.37 1007.51 1007.71 1007.96 1008.23 1008.53 1008.82 1009.09 1009.33 1009.52 1009.65 1009.74 1009.77 1009.76 1009.72 1009.66 1009.59 1009.52 1009.45 1009.39 1009.32
1008.40 1008.05 1007.72 1007.42 1007.16 1006.97 1006.83 1006.76 1006.75 1006.80 1006.89 1007.00 1007.12 1007.23 1007.32 1007.38 1007.41 1007.42 1007.42 1007.42 1007.45 1007.51 1007.62 1007.78 1008.00 1008.26 1008.56 1008.86 1009.16 1009.43 1009.66 1009.82 1009.93 1009.97 1009.96 1009.90 1009.81 1009.71 1009.61 1009.51 1009.42 1009.35 1009.27
1008.58 1008.23 1007.88 1007.55 1007.26 1007.02 1006.85 1006.74 1006.69 1006.71 1006.78 1006.88 1006.99 1007.10 1007.20 1007.28 1007.33 1007.37 1007.39 1007.43 1007.48 1007.58 1007.72 1007.92 1008.17 1008.47 1008.79 1009.11 1009.43 1009.70 1009.92 1010.07 1010.15 1010.16 1010.11 1010.01 1009.89 1009.75 1009.61 1009.48 1009.38 1009.28 1009.20
1008.57 1008.23 1007.89 1007.56 1007.26 1007.00 1006.80 1006.66 1006.59 1006.57 1006.60 1006.67 1006.76 1006.85 1006.93 1007.00 1007.06 1007.10 1007.14 1007.19 1007.28 1007.40 1007.58 1007.82 1008.11 1008.44 1008.79 1009.15 1009.49 1009.78 1010.01 1010.17 1010.24 1010.24 1010.17 1010.05 1009.90 1009.74 1009.58 1009.43 1009.31 1009.21 1009.12
1008.34 1008.04 1007.72 1007.41 1007.12 1006.86 1006.64 1006.48 1006.37 1006.32 1006.31 1006.33 1006.37 1006.43 1006.48 1006.52 1006.56 1006.59 1006.63 1006.69 1006.78 1006.93 1007.14 1007.41 1007.73 1008.10 1008.49 1008.89 1009.26 1009.59 1009.85 1010.03 1010.12 1010.13 1010.07 1009.96 1009.81 1009.65 1009.49 1009.34 1009.21 1009.11 1009.01
1007.94 1007.68 1007.40 1007.11 1006.83 1006.57 1006.34 1006.16 1006.02 1005.92 1005.86 1005.84 1005.83 1005.83 1005.84 1005.84 1005.84 1005.85 1005.87 1005.92 1006.03 1006.18 1006.40 1006.69 1007.04 1007.44 1007.87 1008.31 1008.73 1009.10 1009.40 1009.63 1009.76 1009.82 1009.80 1009.72 1009.60 1009.46 1009.32 1009.19 1009.07 1008.97 1008.87
Thickness
5812 5808 5804 5800 5798 5794 5791 5789 5788 5786 5784 5781 5778 5775 5772 5770 5768 5765 5763 5762 5760 5759 5758 5757 5756 5756 5754 5754 5754 5752 5749 5745 5738 5740 5743 5744 5742 5739 5735 5732 5729 5726 5723
5810 5805 5801 5798 5794 5791 5788 5787 5786 5783 5782 5779 5776 5772 5769 5767 5765 5762 5760 5759 5757 5756 5755 5754 5753 5753 5751 5750 5749 5748 5746 5744 5738 5733 5735 5736 5735 5735 5732 5729 5727 5725 5721
5805 5800 5795 5793 5790 5787 5785 5784 5783 5780 5777 5775 5771 5768 5765 5764 5761 5759 5757 5756 5755 5754 5753 5752 5751 5749 5747 5747 5745 5743 5742 5742 5738 5733 5731 5732 5731 5731 5727 5726 5725 5722 5719
5800 5794 5789 5786 5785 5783 5781 5780 5778 5776 5773 5770 5768 5765 5763 5761 5758 5756 5754 5753 5752 5751 5751 5750 5749 5747 5745 5743 5741 5739 5737 5734 5733 5730 5728 5727 5726 5726 5723 5719 5716 5716 5715
5792 5787 5783 5781 5779 5777 5775 5774 5772 5771 5770 5767 5764 5762 5760 5757 5755 5752 5750 5749 5747 5746 5746 5746 5746 5744 5742 5739 5738 5735 5732 5728 5726 5724 5722 5721 5719 5717 5715 5715 5711 5710 5709
5783 5779 5778 5775 5772 5770 5769 5768 5766 5765 5764 5762 5759 5757 5755 5754 5751 5749 5746 5745 5743 5741 5740 5740 5740 5739 5737 5735 5733 5731 5728 5724 5721 5719 5718 5716 5714 5714 5712 5710 5707 5703 5700
5775 5772 5770 5768 5765 5763 5763 5760 5759 5757 5756 5755 5753 5751 5749 5748 5746 5744 5741 5740 5739 5738 5737 5735 5735 5736 5732 5730 5727 5724 5723 5721 5719 5716 5713 5713 5711 5710 5707 5704 5702 5699 5697
5766 5763 5762 5759 5757 5756 5754 5752 5751 5750 5748 5747 5746 5745 5743 5742 5740 5738 5736 5735 5734 5734 5733 5732 5729 5727 5726 5723 5720 5718 5716 5715 5714 5712 5711 5711 5710 5708 5705 5702 5699 5696 5695
5756 5754 5753 5751 5749 5747 5745 5744 5743 5742 5740 5740 5738 5737 5735 5734 5733 5730 5728 5728 5728 5728 5729 5728 5725 5722 5720 5717 5714 5711 5710 5709 5709 5707 5706 5705 5704 5703 5700 5696 5693 5688 5686
5747 5746 5745 5743 5741 5739 5737 5736 5735 5734 5732 5732 5731 5730 5728 5726 5725 5723 5721 5721 5721 5721 5721 5721 5719 5716 5713 5710 5707 5705 5703 5703 5702 5700 5698 5698 5697 5696 5695 5692 5689 5684 5681
5739 5737 5735 5734 5732 5731 5730 5728 5725 5724 5724 5724 5724 5723 5722 5720 5718 5715 5714 5713 5713 5713 5713 5712 5710 5708 5705 5702 5700 5699 5697 5696 5694 5693 5692 5691 5690 5689 5688 5687 5685 5682 5677
5727 5724 5724 5724 5724 5724 5721 5719 5718 5717 5715 5714 5714 5714 5714 5714 5712 5709 5707 5706 5705 5704 5704 5704 5702 5698 5695 5693 5692 5691 5689 5687 5686 5685 5684 5684 5683 5682 5682 5681 5679 5677 5676
5714 5714 5715 5715 5715 5714 5712 5710 5709 5708 5707 5706 5706 5704 5705 5706 5704 5701 5698 5697 5695 5695 5695 5694 5691 5688 5686 5684 5684 5683 5680 5679 5678 5677 5676 5677 5678 5677 5676 5674 5672 5671 5669
5704 5705 5705 5704 5705 5705 5703 5702 5701 5701 5699 5699 5698 5698 5698 5696 5694 5692 5689 5686 5684 5683 5683 5682 5680 5678 5676 5675 5675 5674 5672 5672 5672 5670 5670 5670 5670 5669 5667 5667 5664 5662 5660
5698 5697 5697 5697 5698 5696 5696 5695 5694 5693 5692 5689 5691 5691 5688 5686 5684 5681 5679 5677 5675 5672 5670 5670 5669 5669 5667 5667 5666 5666 5665 5664 5663 5663 5662 5661 5661 5660 5659 5659 5656 5653 5651
5687 5688 5689 5691 5691 5689 5688 5687 5686 5685 5684 5683 5682 5681 5680 5678 5674 5671 5668 5665 5662 5659 5658 5660 5660 5660 5659 5659 5657 5656 5656 5656 5656 5655 5654 5653 5652 5652 5650 5650 5647 5645 5642
5681 5682 5683 5684 5683 5683 5682 5680 5677 5675 5674 5673 5672 5671 5669 5666 5663 5660 5657 5654 5652 5649 5649 5651 5651 5652 5651 5650 5649 5648 5647 5648 5647 5646 5645 5645 5644 5644 5642 5640 5638 5637 5634
5675 5675 5675 5675 5676 5675 5674 5673 5672 5669 5667 5665 5662 5660 5658 5655 5652 5649 5646 5643 5644 5643 5644 5644 5644 5644 5644 5642 5641 5640 5640 5639 5638 5637 5637 5636 5636 5635 5633 5632 5630 5629 5626
5667 5667 5667 5667 5667 5667 5667 5665 5664 5662 5660 5657 5655 5651 5648 5645 5642 5639 5636 5636 5638 5638 5638 5637 5637 5637 5636 5634 5632 5631 5630 5630 5629 5628 5627 5627 5627 5626 5625 5625 5623 5620 5618
5660 5659 5658 5658 5658 5658 5658 5656 5654 5653 5650 5648 5646 5644 5640 5637 5634 5633 5630 5630 5629 5629 5629 5629 5630 5629 5628 5626 5624 5623 5622 5621 5621 5620 5619 5619 5618 5617 5617 5616 5615 5613 5612
5652 5652 5650 5650 5649 5648 5648 5647 5645 5643 5641 5639 5637 5635 5632 5630 5628 5627 5624 5623 5622 5621 5621 5621 5621 5621 5619 5618 5616 5614 5613 5612 5612 5611 5610 5609 5609 5608 5608 5607 5606 5606 5604
5643 5644 5643 5641 5640 5639 5639 5638 5637 5634 5633 5631 5629 5626 5622 5621 5621 5619 5617 5615 5614 5613 5614 5613 5613 5612 5611 5609 5608 5606 5604 5603 5602 5601 5600 5600 5599 5599 5598 5598 5597 5596 5594
5635 5635 5635 5634 5633 5630 5630 5630 5629 5626 5624 5623 5621 5618 5616 5614 5612 5610 5609 5607 5606 5605 5605 5604 5603 5602 5601 5600 5599 5597 5595 5594 5593 5591 5590 5590 5589 5588 5588 5587 5587 5585 5584
5628 5628 5628 5628 5627 5625 5624 5623 5620 5619 5617 5614 5612 5610 5608 5606 5604 5602 5601 5600 5599 5598 5597 5596 5595 5594 5593 5592 5591 5590 5588 5585 5583 5582 5581 5580 5579 5578 5577 5576 5576 5575 5574
5621 5621 5621 5621 5620 5619 5617 5616 5613 5610 5608 5606 5604 5602 5600 5598 5597 5595 5594 5592 5591 5590 5589 5588 5587 5587 5586 5584 5582 5581 5578 5576 5574 5572 5571 5570 5569 5568 5568 5567 5566 5565 5565
5615 5615 5614 5613 5612 5611 5609 5607 5605 5603 5601 5598 5596 5594 5593 5591 5589 5588 5587 5585 5584 5583 5582 5582 5581 5580 5579 5577 5575 5571 5568 5566 5564 5563 5562 5561 5560 5560 5560 5559 5558 5558 5557